KW4TT-WX Weather Reports


time (UTC)temp
C
wind
direction
speed
KPH
gust
KPH
rain 1hr
cm
rain 24hr
cm
rain mn
cm
humidity
%
barometer
mb
20260906111544 21 149 0.0 3.2 0.00 0.00 0.00 97 1012.4
20260906110522 21 77 0.0 3.2 0.00 0.00 0.00 97 1012.4
20260906105517 21 214 0.0 1.6 0.00 0.00 0.00 97 1012.4
20260906104533 21 153 1.6 3.2 0.00 0.00 0.00 97 1012.1
20260906103550 21 97 0.0 3.2 0.00 0.00 0.00 97 1012.2
20260906102547 21 87 0.0 3.2 0.00 0.00 0.00 97 1012.2
20260906101523 21 301 0.0 1.6 0.00 0.00 0.00 98 1012.2
20260906100520 21 39 0.0 3.2 0.00 0.00 0.00 98 1012.1
20260906095517 21 107 1.6 3.2 0.00 0.00 0.00 98 1011.9
20260906094533 21 83 1.6 3.2 0.00 0.00 0.00 98 1012.3
20260906093530 21 75 0.0 3.2 0.00 0.00 0.00 98 1012.1
20260906092526 21 250 1.6 3.2 0.00 0.00 0.00 98 1012.2
20260906091523 21 95 0.0 3.2 0.00 0.00 0.00 98 1012.1
20260906090520 21 67 1.6 3.2 0.00 0.00 0.00 98 1012.1
20260906085517 21 70 0.0 3.2 0.00 0.00 0.00 97 1012.2
20260906084533 21 0.0 3.2 0.00 0.00 0.00 97 1012.2
20260906083531 21 98 1.6 3.2 0.00 0.00 0.00 97 1012.2
20260906082547 21 43 1.6 3.2 0.00 0.00 0.00 97 1012.1
20260906081523 21 74 0.0 3.2 0.00 0.00 0.00 96 1012.0
20260906080520 21 41 0.0 1.6 0.00 0.00 0.00 96 1012.0
20260906075617 21 82 0.0 3.2 0.00 0.00 0.00 96 1011.9
20260906074533 21 207 0.0 3.2 0.00 0.00 0.00 96 1011.7
20260906073650 21 37 0.0 3.2 0.00 0.00 0.00 95 1011.9
20260906072527 21 172 0.0 3.2 0.00 0.00 0.00 95 1012.0
20260906071523 21 225 0.0 3.2 0.00 0.00 0.00 95 1012.2
20260906070520 21 96 1.6 3.2 0.00 0.00 0.00 94 1012.2
20260906065517 21 181 0.0 1.6 0.00 0.00 0.00 94 1012.2
20260906064534 21 66 0.0 3.2 0.00 0.00 0.00 94 1012.3
20260906063530 21 87 1.6 3.2 0.00 0.00 0.00 94 1012.4
20260906062527 21 80 1.6 3.2 0.00 0.00 0.00 94 1012.6
20260906061544 21 162 0.0 3.2 0.00 0.00 0.00 94 1012.6
20260906060521 22 84 1.6 3.2 0.00 0.00 0.00 94 1012.8
20260906060351 21 76 0.0 3.2 0.00 0.00 0.00 95 1012.9
20260906052548 22 107 0.0 3.2 0.00 0.00 0.00 94 1013.0
20260906052005 22 22 0.0 1.6 0.00 0.00 0.00 94 1013.0
20260906051320 22 237 1.6 3.2 0.00 0.00 0.00 94 1013.0
20260906050032 22 269 1.6 3.2 0.00 0.00 0.00 94 1013.1
20260906045048 22 89 0.0 3.2 0.00 0.00 0.00 94 1013.2
20260906044025 22 95 1.6 3.2 0.00 0.00 0.00 94 1013.2
20260906043022 22 85 0.0 1.6 0.00 0.00 0.00 93 1013.1
20260906042018 22 84 1.6 3.2 0.00 0.00 0.00 93 1013.2
20260906041035 22 150 0.0 3.2 0.00 0.00 0.00 92 1013.2
20260906040032 22 29 1.6 3.2 0.00 0.00 0.00 92 1013.2
20260906035029 22 218 0.0 3.2 0.00 0.00 0.00 93 1013.1
20260906034025 22 97 0.0 3.2 0.00 0.00 0.00 92 1013.1
20260906033022 22 38 0.0 3.2 0.00 0.00 0.00 92 1013.1
20260906032018 22 69 0.0 3.2 0.00 0.00 0.00 91 1013.1
20260906031035 22 83 0.0 3.2 0.00 0.00 0.00 90 1013.2
20260906030032 22 272 0.0 1.6 0.00 0.00 0.00 90 1013.5
20260906025029 23 86 0.0 3.2 0.00 0.00 0.00 88 1013.7
20260906024025 23 125 1.6 3.2 0.00 0.00 0.00 88 1013.7
20260906023022 23 177 1.6 3.2 0.00 0.00 0.00 87 1013.8
20260906022039 23 160 0.0 3.2 0.00 0.00 0.00 87 1013.8
20260906021035 23 201 1.6 3.2 0.00 0.00 0.00 87 1013.7
20260906020032 23 212 1.6 3.2 0.00 0.00 0.00 86 1013.7
20260906015028 23 230 1.6 3.2 0.00 0.00 0.00 85 1013.5
20260906014025 24 290 0.0 1.6 0.00 0.00 0.00 83 1013.2
20260906013022 24 199 0.0 3.2 0.00 0.00 0.00 82 1013.1
20260906012018 25 356 1.6 3.2 0.00 0.00 0.00 80 1013.0
20260906011035 25 209 3.2 4.8 0.00 0.00 0.00 79 1013.1
20260906010032 25 254 1.6 4.8 0.00 0.00 0.00 79 1013.1
20260906005029 25 77 1.6 3.2 0.00 0.00 0.00 77 1012.7
20260906004026 26 74 1.6 3.2 0.00 0.00 0.00 76 1012.6
20260906003023 26 177 1.6 4.8 0.00 0.00 0.00 76 1012.3
20260906002020 26 76 1.6 4.8 0.00 0.00 0.00 76 1012.1
20260906001017 26 80 1.6 4.8 0.00 0.00 0.00 76 1011.9
20260906000053 26 64 1.6 3.2 0.00 0.00 0.00 75 1011.8
20260905235030 26 291 0.0 3.2 0.00 0.00 0.00 75 1012.0
20260905234027 26 65 0.0 3.2 0.00 0.00 0.00 74 1012.0
20260905233024 27 0.0 0.0 0.00 0.00 0.00 73 1012.1
20260905232021 27 60 1.6 3.2 0.00 0.00 0.00 72 1011.9
20260905231017 27 75 1.6 3.2 0.00 0.00 0.00 71 1012.0
20260905230054 27 73 0.0 3.2 0.00 0.00 0.00 72 1012.1
20260905225031 27 330 1.6 3.2 0.00 0.00 0.00 72 1012.1
20260905224027 27 32 0.0 3.2 0.00 0.00 0.00 71 1012.3
20260905223024 27 288 1.6 3.2 0.00 0.00 0.00 69 1012.0
20260905222020 27 142 3.2 6.4 0.00 0.00 0.00 68 1011.9
20260905221017 28 315 1.6 3.2 0.00 0.00 0.00 63 1012.1
20260905220054 28 192 3.2 6.4 0.00 0.00 0.00 62 1012.2
20260905215030 28 314 1.6 6.4 0.00 0.00 0.00 60 1012.3
20260905214027 29 88 1.6 6.4 0.00 0.00 0.00 57 1012.4
20260905213029 30 14 3.2 6.4 0.00 0.00 0.00 57 1012.0
20260905212021 30 27 3.2 11.3 0.00 0.00 0.00 57 1011.9
20260905211018 31 67 4.8 16.1 0.00 0.00 0.00 57 1011.9
20260905210034 32 335 3.2 9.7 0.00 0.00 0.00 55 1011.8
20260905205030 33 30 6.4 11.3 0.00 0.00 0.00 51 1011.7
20260905204027 36 47 8.0 19.3 0.00 0.00 0.00 43 1011.9
20260905203026 38 268 3.2 6.4 0.00 0.00 0.00 39 1011.5
20260905202041 36 308 1.6 6.4 0.00 0.00 0.00 40 1011.5
20260905201037 36 262 3.2 6.4 0.00 0.00 0.00 41 1011.4
20260905200034 36 219 4.8 9.7 0.00 0.00 0.00 42 1011.5
20260905195030 36 114 3.2 4.8 0.00 0.00 0.00 40 1011.6
20260905194027 36 211 3.2 6.4 0.00 0.00 0.00 41 1011.5
20260905193024 35 255 3.2 4.8 0.00 0.00 0.00 43 1011.6
20260905192020 35 128 1.6 8.0 0.00 0.00 0.00 44 1011.7
20260905191017 35 127 3.2 6.4 0.00 0.00 0.00 47 1011.9
20260905190034 35 317 1.6 6.4 0.00 0.00 0.00 45 1012.2
20260905185031 36 17 3.2 8.0 0.00 0.00 0.00 43 1012.2
20260905184028 36 284 3.2 6.4 0.00 0.00 0.00 43 1012.1
20260905183044 36 168 4.8 11.3 0.00 0.00 0.00 43 1012.3
20260905182021 36 213 6.4 11.3 0.00 0.00 0.00 43 1012.4
20260905181017 36 243 4.8 11.3 0.00 0.00 0.00 45 1012.6
20260905180034 36 276 3.2 6.4 0.00 0.00 0.00 44 1012.6
20260905175030 35 99 4.8 8.0 0.00 0.00 0.00 46 1012.8
20260905174027 35 194 3.2 6.4 0.00 0.00 0.00 46 1013.0
20260905173024 34 216 3.2 6.4 0.00 0.00 0.00 48 1013.1
20260905172021 34 188 3.2 9.7 0.00 0.00 0.00 48 1013.2
20260905171017 34 182 3.2 8.0 0.00 0.00 0.00 48 1013.3
20260905170034 35 243 3.2 9.7 0.00 0.00 0.00 48 1013.6
20260905165031 35 215 6.4 9.7 0.00 0.00 0.00 49 1013.7
20260905164027 35 258 4.8 9.7 0.00 0.00 0.00 51 1014.0
20260905163024 34 304 3.2 8.0 0.00 0.00 0.00 54 1014.1
20260905162021 33 217 3.2 9.7 0.00 0.00 0.00 53 1014.2
20260905161017 33 14 3.2 8.0 0.00 0.00 0.00 54 1014.3
20260905160034 33 266 3.2 8.0 0.00 0.00 0.00 54 1014.3
20260905155031 33 298 3.2 6.4 0.00 0.00 0.00 55 1014.4
20260905154048 33 202 3.2 6.4 0.00 0.00 0.00 57 1014.5
20260905153024 33 255 1.6 6.4 0.00 0.00 0.00 60 1014.5
20260905152021 32 297 3.2 6.4 0.00 0.00 0.00 60 1014.8
20260905151019 32 226 3.2 11.3 0.00 0.00 0.00 61 1014.7
20260905150034 31 215 3.2 9.7 0.00 0.00 0.00 63 1014.8
20260905145031 31 231 3.2 11.3 0.00 0.00 0.00 62 1015.0
20260905144027 30 341 1.6 6.4 0.00 0.00 0.00 66 1015.1
20260905143024 30 211 4.8 12.9 0.00 0.00 0.00 67 1015.1
20260905142021 29 290 1.6 6.4 0.00 0.00 0.00 70 1015.1
20260905141018 28 186 1.6 6.4 0.00 0.00 0.00 73 1015.2
20260905140054 27 195 3.2 9.7 0.00 0.00 0.00 76 1015.1
20260905135031 27 204 3.2 6.4 0.00 0.00 0.00 78 1015.1
20260905134048 26 239 1.6 4.8 0.00 0.00 0.00 82 1015.3
20260905133024 26 202 1.6 4.8 0.00 0.00 0.00 83 1015.4
20260905132021 25 197 3.2 6.4 0.00 0.00 0.00 87 1015.4
20260905131018 24 192 3.2 6.4 0.00 0.00 0.00 90 1015.4
20260905130034 23 180 1.6 4.8 0.00 0.00 0.00 93 1015.4
20260905125031 23 191 1.6 6.4 0.00 0.00 0.00 94 1015.3
20260905124028 23 166 1.6 3.2 0.00 0.00 0.00 96 1015.3
20260905123024 22 168 1.6 4.8 0.00 0.00 0.00 97 1015.2
20260905122041 22 165 1.6 4.8 0.00 0.00 0.00 98 1015.2
20260905121017 22 173 1.6 4.8 0.00 0.00 0.00 99 1015.2
20260905120034 22 139 0.0 3.2 0.00 0.00 0.00 99 1015.1
20260905115031 22 159 1.6 3.2 0.00 0.00 0.00 99 1014.9
20260905114027 21 85 0.0 1.6 0.00 0.00 0.00 98 1014.9
20260905113024 21 185 0.0 1.6 0.00 0.00 0.00 98 1014.7